Погода в Марьинском

Россия / Костромская область     57°28′43″N   40°42′47″E
темп.,
°C
ветер,
м/с
пор.,
м/с
влажн.,
%
обл.,
%
осадки,
мм/ч
давл.,
гПа
погр.,
м
26 июня, вс
вс2600:00+20сз337298 0.0 101960
03:00+18ссв1281100 0.0 102017
06:00+19в23830 0.0 1021142
09:00+21в23620 0.0 1022500
12:00+24вюв22555 0.0 1022865
15:00+26з01555 0.0 10211013
18:00+25сз11610 0.0 1020754
21:00+20ююз22790 0.0 102018
27 июня, пн
пн2700:00+18юз36850 0.0 102083
03:00+18зюз410925 0.0 1019175
06:00+20зсз410860 0.0 1018283
09:00+23сз57670 0.0 1018433
12:00+27сз57570 0.0 10181223
15:00+28сз48559 0.0 10172701
18:00+24ссв476974 0.1 1018446
21:00+19св49855 0.3 1019264
28 июня, вт
вт2800:00+14св34803 0.0 102156
03:00+12св34774 0.0 102271
06:00+13св38775 0.0 1023241
09:00+16св56565 0.0 1024942
12:00+18ссв56460 0.0 10241492
15:00+19ссв46440 0.0 10241629
18:00+18ссв35550 0.0 1024736
21:00+13св34680 0.0 102447
29 июня, ср
ср2900:00+10св33690 0.0 102528
03:00+8св22750 0.0 102611
06:00+11ссв23710 0.0 1026109
09:00+16ссв23550 0.0 1026657
12:00+19с23450 0.0 10251586
15:00+20ссз23430 0.0 10241625
18:00+20сз24562 0.0 10221138
21:00+14зсз3373100 0.0 102242
30 июня, чт
чт3000:00+11сз227819 0.0 102214
03:00+10сз33775 0.0 102240
06:00+13сз3976100 0.0 1021222
09:00+19сз585955 0.0 1020592
12:00+22ссз684786 0.0 10191389
15:00+24ссз585034 0.0 10181879
18:00+22с48631 0.0 1017924
21:00+17с22781 0.0 101817